***** Comet has two T-passenges in 2035 *****



  29P/Schwassmann-Wachmann 1 

Epoch 2004 July 14.0 TT = JDT 2453200.5  

T 2004 July 10.82776 TT                                 Nakano

q   5.7235781            (2000.0)            P               Q

n   0.06726259     Peri.   48.95622     +0.99214598     -0.03564167

a   5.9880717      Node   312.71558     -0.02848344     +0.86898896

e   0.0441701      Incl.    9.39206     +0.12179919     +0.49354621

P  14.65

From 1935 observations 1902-2001, mean residual 0".94.

Residuals in seconds of arc (or two decimals in units of degrees)

1902/                     780310 046  0.1+  0.0     941231 897  1.3-  0.3-  

020304 024 (2.3+  4.0+)   780310 046  0.1+  0.5-    1995/                   

020305 024  2.4-  1.2+    780311 046  0.1+  0.3+    950101 864  0.8-  0.4-  

020305 024  1.1+  1.8+    780311 046  0.5-  0.1+    950101 864  0.8-  0.7-  

020305 024 (0.1+  3.1+)   780312 046  1.3-  0.3+    950102 410  1.0-  0.8+  

1927/                     780312 046  1.2-  0.4+    950102 410  1.4-  0.8+  

271115 029 (3.8-  3.1-)   780313 801 (7.8-  3.3+)   950102 410  1.7-  0.6+  

271118 029  0.1-  2.0-    780314 801 (2.5-  0.3+)   950104 605  1.5-  0.1+  

271122 029 (3.2+  2.8+)   780329 046 (3.1+  0.9+)   950104 605 (3.2-  0.8-) 

271122 029(10.3+  0.1-)   780329 046 (6.9+  3.6+)   950104 605  1.4-  1.5-  

271123 662 (3.4+  2.4-)   780413 801  1.5+  0.4-    950104 605  1.1+  0.2-  

271124 804(18.0- 19.1+)   781010 046 (1.7-  4.2+)   950105 605  0.2-  1.6+  

271125 662  0.1-  0.1+    781031 010  0.0   0.1-    950105 897  1.1-  0.4+  

271126 754  0.9+  0.7+    781101 801  1.5-  0.5+    950105 897  0.7-  0.1-  

271126 804(31.1- 20.1-)   781203 801  0.2-  0.4+    950106 046  0.6-  0.4+  

271128 754 (2.9+  0.2+)   781206 801  0.5-  0.3+    950106 046  1.0-  0.3+  

271201 754 (0.8-  3.6-)   781211 372  1.1-  0.3+    950106 046  0.6-  0.1+  

271201 754 (0.0   3.1-)   781224 046  1.4-  0.1-    950107 046  0.5-  0.1-  

271204 029  0.7+  0.9-    781224 046  2.0-  0.8+    950107 046  0.3-  0.4-  

271214 754 (1.7-  5.0-)   781228 801 (2.6-  0.4-)   950107 046  0.4-  0.4-  

271214 029  2.4-  0.9+    781230 879 (3.4-  1.1-)   950107 897  0.2+  0.5+  

271215 662  0.1-  0.2+    781230 879  2.3-  0.8-    950107 897  0.8+  0.7+  

271215 662  1.4-  0.6-    1979/                     950108 359  0.3+  0.0   

271219 754 (6.1+  5.4-)   790102 879  0.9+  0.2+    950108 359  0.3-  0.4-  

271220 024  1.5-  1.2-    790102 879  1.6+  0.1-    950113 897  0.0   0.3+  

271221 754 (4.1+  1.1-)   790120 046  0.9-  1.7-    950113 897  0.1-  0.4+  

271222 754 (4.4-  2.9+)   790120 046  0.2+  0.9-    950116 046  0.8-  0.2-  

271224 754(23.6- 20.2-)   790123 801  1.5-  0.7+    950120 897  0.6-  0.1+  

271228 029  1.2+  0.1-    790124 801  2.1-  1.5+    950120 897  0.4-  0.0   

271229 754  1.3-  0.8+    790125 046  1.6-  0.2+    950120 897  0.3-  0.5+  

271229 754  1.0-  0.8-    790125 046  1.3-  0.1+    950123 897  0.2+  0.5+  

1928/                     790130 046  1.5-  0.1+    950123 897  0.7+  0.3+  

280111 754  1.3-  0.6+    790130 046  1.0-  0.0     950126 897  1.1+  0.4+  

280112 754  1.6+  2.1-    790204 801  0.8-  1.2+    950126 897  0.2+  0.3+  

280113 662  2.3-  0.0     790226 046 (1.5+  2.7-)   950128 691  0.5-  0.3-  

280118 662  2.1+  1.1+    790226 046  0.4-  1.7-    950128 801  0.0   0.4+  

280120 662  1.6-  1.7-    790227 046  0.8-  1.2-    950128 691  0.4-  0.1+  

280121 754  1.5-  1.0+    790227 046  0.7-  2.3-    950128 801  0.1+  0.1+  

280121 662  1.7-  0.1-    790322 046  0.5-  0.7+    950129 691  1.2-  0.4-  

280122 754 (3.4-  1.9-)   790322 046 (0.9+  3.4+)   950129 691  1.1-  0.2-  

280123 754 (2.6-  0.5-)   791217 372  1.1+  0.0     950129 691  0.9-  0.2-  

280210 662  0.8+  1.0-    791224 046  1.3-  1.0-    950129 897  0.1+  0.8+  

280211 662  1.3-  0.8+    791224 046  0.9-  0.3+    950129 897  0.0   0.4-  

280212 754  0.9+  1.8-    791228 046  1.1-  0.5+    950130 605 (1.3+  5.2+) 

280213 754  1.4+  0.8+    791228 046  1.1-  0.2+    950130 605  0.5+  0.7-  

280221 754  0.5+  1.6-    791228 801 (3.2+  4.0+)   950130 605  0.4+  0.6-  

280224 754  0.9+  1.0+    1980/                     950130 605  0.4+  1.2-  

281014 029  0.8-  0.5-    800110 323  0.6+  1.1+    950130 033  0.5-  0.2-  

281019 662  0.8+  0.1+    800113 046 (1.8-  4.5-)   950131 033  1.7-  0.4+  

281021 662  0.8-  0.2+    800113 046  0.8-  1.4-    950131 046 (1.4-  4.7-) 

281208 754  1.7+  2.4-    800114 046 (0.7-  2.7-)   950201 897  0.5-  0.4-  

281208 029  0.4+  1.1-    800114 046  0.2-  2.1-    950201 897  0.0   0.4-  

281209 662  1.7+  0.2-    800117 323  0.3-  0.1+    950203 033  0.8-  0.1-  

281210 754  0.2+  1.4-    800117 046 (0.4-  2.8-)   950203 359  0.0   0.8-  

281211 754 (2.4-  5.3+)   800117 046 (1.9+  3.0-)   950203 359  1.6-  1.1-  

1929/                     800121 046  0.7+  1.4-    950203 359  1.0-  0.3-  

290105 029  0.9-  0.3-    800121 046  0.1-  1.2-    950206 897  0.0   0.4+  

290112 754 (8.0-  0.2+)   800124 323  0.3+  0.7+    950206 897  0.4+  0.4+  

290114 754 (2.5-  1.9-)   800209 879 (0.7+  3.8+)   950206 897  0.0   0.5-  

290203 029  1.5-  1.4-    800209 879  1.8-  1.5+    950207 897  0.2-  0.6+  

290308 754  1.8-  1.1+    800213 323  0.6+  1.2+    950207 897  0.1+  0.2+  

291202 029  1.0-  1.1-    800214 046  0.6-  0.7-    950207 897  0.1-  0.3-  

291205 029 (3.2-  0.8+)   800214 046  1.2+  0.5-    950210 897 (4.0-  0.5+) 

291221 029  0.6-  0.5-    800215 046  2.1+  1.3-    950210 897  2.2-  0.1-  

291221 029  1.5-  1.2-    800215 046 (3.2+  2.3+)   950210 360  0.2-  0.2-  

291228 754  0.6-  1.6-    800216 879 (1.5-  5.1+)   950210 360  0.2-  0.0   

291230 754 (2.0+ 11.7-)   800216 879 (3.5+  2.8+)   950217 359  0.9+  0.2-  

291231 754  1.7-  0.2-    800219 046  1.3+  1.1-    950217 359  0.2+  0.3-  

1930/                     800219 046  1.0+  0.8-    950219 360  0.2-  0.4-  

300123 754(52.1- 19.2+)   800220 046  0.4+  2.4-    950219 360  0.4-  0.3-  

300123 754(52.8- 16.3+)   800220 046  1.1+  0.1-    950219 359  0.1+  0.2+  

301023 029  0.8-  0.2+    800221 046  1.8+  0.1+    950219 897  0.0   0.6-  

1931/                     800222 046 (0.9+  2.5+)   950219 359  0.9+  0.2-  

310222 029 (3.1+  0.5+)   800307 323  1.0-  0.2+    950219 897  0.0   0.1-  

311212 754  1.7-  0.4-    800316 046  0.8-  1.2+    950220 897  0.1+  0.0   

311212 754  1.9-  0.4-    800316 046  0.7-  0.9-    950220 897  0.9+  0.4+  

311215 754  2.0-  0.8-    800317 046  0.3-  0.3+    950224 410  0.4+  0.6+  

311216 754 (3.4-  0.6+)   800317 046  1.3-  0.2-    950224 410  0.1+  0.5+  

1932/                     800318 323 (1.1-  3.7+)   950224 410  0.4+  0.1+  

320128 754 (2.5+  1.2+)   1981/                     950224 360  0.0   0.4-  

320205 754 (2.9+  0.9+)   810215 675  0.7-  0.0     950224 360  0.2-  0.3-  

320205 029 (0.8+  3.1-)   810216 675  0.2+  0.0     950227 801  0.6-  0.6+  

320206 029  0.7-  2.1-    810228 046  0.5+  0.0     950227 801  0.5-  0.1+  

320206 754  1.2+  1.4+    810228 046 (1.6-  3.3+)   950228 046  0.8-  0.2+  

320213 029 (0.6+  2.6+)   810327 046  1.0+  0.6-    950228 046  0.8-  0.1+  

320304 029 (0.6-  3.5+)   810327 046 (1.2+  2.6-)   950228 046  0.9-  0.1+  

320308 754  1.6+  1.2+    810328 801  1.0-  0.5-    950301 897  0.3-  0.4+  

321226 754 (2.6+  1.2+)   810329 046  1.3+  1.4-    950301 897  1.5-  0.4+  

321226 754  1.5+  1.2+    810329 046  0.6-  1.6-    950301 046  1.0-  0.2+  

1933/                     810425 879  0.7+  0.4+    950301 046  1.0-  0.3+  

330106 754  1.3+  1.2-    810427 494 (5.5+  0.9+)   950301 046  1.1-  0.3+  

330120 754(22.6+ 50.7-)   810427 489  1.2+  0.1+    950305 801  1.7-  1.2+  

330121 029  0.2+  0.1-    810427 489  1.3+  0.8+    950305 801  1.2-  1.3+  

330124 754 (0.8-  2.8+)   810428 394 (3.6+  1.2+)   950305 897  0.4-  0.1+  

330125 029 (3.1+  1.7+)   810428 394 (7.1+  2.1+)   950305 897  0.7-  1.2+  

330126 029  2.4+  0.9+    810429 394 (2.6+  1.4+)   950306 359  0.5-  1.2+  

330126 029  0.6+  1.1+    810429 394 (3.4+  1.4-)   950306 359  1.0-  1.4+  

330203 754 (1.0-  5.2+)   810502 494 (5.2+  0.5-)   950308 897  1.4-  1.0+  

330216 754  1.5-  1.1+    1982/                     950308 897  2.2-  1.1+  

330218 754  0.1+  1.6+    820119 372  2.1-  0.5-    950308 360  1.0-  0.1+  

330220 029  1.3-  2.2+    820221 046  2.0-  0.8-    950308 360  1.2-  0.0   

330221 029 (2.3-  4.0+)   820221 046  1.0-  0.4-    950319 360  0.1-  0.6+  

330321 029 (2.6+  1.5+)   820315 046 (0.7-  3.7-)   950319 360  0.3+  0.7+  

330322 029  1.3+  0.6-    820315 046 (1.0-  3.2-)   950320 897  1.4+  0.7+  

330324 754 (2.7+  0.1-)   820323 046 (0.2+  2.7-)   950326 410  0.6+  0.8+  

330324 029  0.1-  0.7-    820323 046  0.3-  1.6-    950326 410  0.3+  1.2+  

330325 029 (3.6+  0.2+)   820324 046 (1.3-  3.5-)   950328 801  0.5+  0.8+  

330422 029  2.2+  1.9-    820324 046 (2.5-  3.3-)   950328 801  0.2+  0.3+  

330425 029 (3.2+  1.9-)   820325 046  1.4+  0.4-    950328 118  0.1-  0.4-  

330426 029 (3.8+  2.6-)   820326 046 (4.2-  0.4-)   950328 118  0.1+  0.1+  

330427 029  1.2+  0.5-    820326 046 (3.0-  1.3-)   950330 118  0.2-  0.2-  

330514 754  1.6-  0.7+    820414 046 (2.5+  0.5-)   950330 118  0.3-  0.3+  

330518 754  0.4+  1.9+    820414 046  2.3+  1.2-    950401 897  0.1-  1.4+  

330520 029 (4.0+  1.5-)   820415 046  2.3+  0.4-    950401 410  0.8+  0.1+  

330521 029 (4.2+  3.2-)   820415 046 (4.4+  0.2+)   950401 410  0.4+  0.6+  

330522 029 (4.6+  2.2-)   820416 010 (3.6+  0.4+)   950401 410  0.4+  0.2-  

330525 754  1.8-  1.2+    820416 046  2.1+  2.0-    950403 360  0.5-  0.4+  

1934/                     820416 046 (3.3+  0.5+)   950403 360  0.1-  0.3+  

340215 754  1.4+  0.7+    820417 010 (5.8+  1.5+)   950403 118  0.2+  1.1+  

340310 754  1.6+  1.3+    820418 010  1.7+  1.7-    950404 118  0.4-  0.9+  

